Location: Pedimozza
(42.0500°N, 9.3500°E)
Time: 18:30:10
(UTC+00:00)

USA 229 - Pass Details

Date: 19 August 2019
Orbit: 1003 x 1209 km, 63.5° (Epoch: 08 October)

Event Time Altitude Azimuth Distance (km) Brightness Sun altitude
Rises 21:46:03 0° 325° (NW) 3,952 7.8 -30.7°
Reaches altitude 10° 21:48:42 10° 327° (NNW) 3,020 6.9 -30.9°
Maximum altitude 21:55:58 77° 54° (NE) 1,201 3.8 -31.5°
Enters shadow 21:56:17 76° 80° (E) 1,209 3.8 -31.5°
